Location: Grums
(59.3529°N, 13.1129°E)
Time: 19:30:17
(UTC+01:00)

ISS - Visible Passes

Search period start: 27 February 2021 00:00
Search period end: 09 March 2021 00:00
Orbit: 417 x 422 km, 51.6° (Epoch: 27 February)

Date Brightness Start Highest point End Pass type
(mag) Time Alt. Az. Time Alt. Az. Time Alt. Az.
27 Feb -1.4 04:52:06 13° S 04:53:04 14° SSE 04:54:58 10° ESE visible
27 Feb -1.8 06:26:25 10° SW 06:29:05 22° S 06:31:46 10° SE visible
28 Feb -0.9 04:06:31 11° SE 04:06:31 11° SE 04:07:07 10° SE visible
28 Feb -1.8 05:39:28 11° SW 05:41:48 21° S 05:44:26 10° ESE visible
01 Mar -1.8 04:53:50 18° S 04:54:32 19° SSE 04:57:01 10° ESE visible
02 Mar -1.3 04:08:10 15° SE 04:08:10 15° SE 04:09:32 10° ESE visible
02 Mar -2.0 05:41:07 13° SW 05:43:20 22° S 05:46:02 10° SE visible
03 Mar -2.1 04:55:27 21° SSW 04:56:02 22° S 04:58:42 10° SE visible
04 Mar -1.6 04:09:46 18° SE 04:09:46 18° SE 04:11:21 10° ESE visible
04 Mar -1.9 05:42:43 12° SW 05:44:50 20° SSW 05:47:22 10° SE visible
05 Mar -2.2 04:57:03 21° SSW 04:57:33 21° S 05:00:10 10° SE visible
06 Mar -1.7 04:11:24 18° SSE 04:11:24 18° SSE 04:12:55 10° SE visible
06 Mar -1.6 05:44:21 10° WSW 05:46:16 15° SSW 05:48:17 10° SSE visible
07 Mar -1.9 04:58:44 17° SSW 04:58:59 18° SSW 05:01:19 10° SSE visible
08 Mar -1.5 04:13:10 15° SSE 04:13:10 15° SSE 04:14:13 10° SE visible
